Showing default

WILDFIRE 5, 57769

Orbit data source: Space-Track

WILDFIRE 5, 57769 is a payload satellite owned by SDA (US) in LEO that was launched on Sat, 02 Sep 2023 UTC via an FALCON 9 launch vehicle from the Air Force Western Test Range (AFWTR). Payload-class satellites include a variety of spacecraft equipped with specific instruments for various scientific and technological missions. These include communications satellites like Starlink; space stations such as the ISS; scientific satellites like the Hubble; Earth observation satellites from companies like Planet Labs, Umbra, and HawkEye 360; GPS; miniature CubeSats for education and research; and military/defense satellites.

Loading next visibility...
Identifier
57769, 2023-133N
Orbit
LEO
Country
Flag of USUS
Related business
Manufacturer
TYVAK/LMSSD
Mission
Operational Defense Communications
Bus & Motor
MAVERICKS, Unknown motor
Mass
~300 kg wet, ~300 kg dry
Launch date (UTC)
2023-09-02 (2 years ago)
Launch vehicle
FALCON 9
Launch site
Air Force Western Test Range (AFWTR)
Object type
Payload
Rocket body
Debris
Shape & HBR
Box + 2 Pan, 1.3 m
Radar Cross Section
0.713 m², Medium (>0.1 m² and < 1m²)

Expand to show TLE details & history
Last TLE update: 10 hours ago

TLE from 10 hours ago
0 WILDFIRE 5
1 57769U 23133N   25346.96661941  .00000115  00000-0  91468-4 0  9997
2 57769  81.0023 186.5212 0006336 148.9600 211.1932 13.85428237115246
Epoch: 2025-12-12T23:11Z
TLE epoch observation values (Epoch: 2025-12-12T23:11:55.917Z)
Latitude
0.00001°
Longitude
116.63756°
Altitude
951.525 km
Speed
7.374 km/s
True Right ascension
12h 26m 05s
True Declination
0° 00' 00"
Sunlit
Object was in daylight at epoch
Visualization orbit readout
Latitude
Unknown
Longitude
Unknown
Altitude
Unknown
Speed
Unknown
Apparent Right ascension
Unknown
Apparent Declination
Unknown
Sunlit
N/A
Visualization observer readout
Local Sidereal Time
07:32:40
Azimuth
Unknown
Elevation
Unknown
Doppler factor
Unknown
Orbital elements
Apogee altitude
946.553 km
Perigee altitude
937.277 km
Semi-major axis
7,320.052 km
Eccentricity
0.00063
Inclination
81.0023°
RAAN
186.5212°
Arg. of periapsis
148.96°
True anomaly
211.15562°
Mean anomaly
211.1932°
Eccentric anomaly
211.17441°
Mean motion
3.46555 °/min
Orbital period
103.88 mins
BSTAR
0.000091468
Loading maneuver chart data...
Computing Atmospheric mass density...
Loading historical data...
Loading historical data...
Loading historical data...
Loading historical data...
Loading historical data...
Loading historical data...
Loading historical data...

Documentation

Showing up to 5 results
|